{"data":{"norad_id":48137,"epoch":"2026-09-20T05:03:32.610240Z","epoch_age_seconds":54124,"freshness":"FRESH","line1":"1 48137U 21027AX  26263.21079410 -.00000290  00000+0  24300-5 0  9993","line2":"2 48137  53.1601 330.0766 0001484  95.4541 264.6630 15.31702740302441","mean_motion":15.3170274,"eccentricity":0.0001484,"inclination_deg":53.1601,"raan_deg":330.0766,"arg_perigee_deg":95.4541,"mean_anomaly_deg":264.663,"bstar":2.43e-6,"rev_number":30244,"period_min":94.013019784766,"perigee_km":469.71545530641,"apogee_km":471.74819957439,"semimajor_km":6848.8688274404,"source":"CELESTRAK","updated_at":"2026-09-20T09:00:38.768994Z"}}